Location: Fontevrault
(47.1823°N, 0.0493°E)
Time: 18:35:11
(UTC+00:00)

Cosmos 1725 Rocket - Pass Details

Date: 23 October 2021
Orbit: 961 x 991 km, 82.9° (Epoch: 27 November)

Event Time Altitude Azimuth Distance (km) Brightness Sun altitude
Rises 05:18:05 0° 3° (N) 3,660 7.0 -12.8°
Reaches altitude 10° 05:21:58 10° 27° (NNE) 2,707 6.6 -12.1°
Maximum altitude 05:25:15 15° 59° (ENE) 2,379 6.9 -11.6°
Drops below altitude 10° 05:28:33 10° 92° (E) 2,700 7.9 -11.0°
Sets 05:32:22 0° 116° (ESE) 3,644 8.5 -10.4°
